RYR8468 LPMA-EDDF

Flight info

Callsign RYR8468
Flight time N/A
Altitude 34000
Route DEGUN DCT ROLAR DCT VERAM DCT ASMAR DCT DEMOS DCT LOTEE DCT AZFIC/N0465F360 DCT ERIGA DCT MOKOR UN741 NTS DCT GONEK DCT TABOV DCT TSU DCT OQQAL DCT RANUX/N0460F370 DCT VALEK DCT LUTAX DCT DIK T856 NIVNU/N0419F230 T847 IMCOM IMCOM1A
Aircraft B738/M-SDE2E3FGHIRWXY/LB1

Departure

Time 2026-05-04 18:08
Airport Cristiano Ronaldo International Airport (LPMA)

Arrival

Time N/A
Airport Frankfurt Main Airport (EDDF)
Time Latitude Longitude Altitude Speed Heading
2026-05-04 17:51 32.69414 -16.77594 175 ft 0 kts 138°
2026-05-04 17:57 32.69420 -16.77601 175 ft 2 kts 136°
2026-05-04 17:57 32.69432 -16.77614 175 ft 2 kts 136°
2026-05-04 17:58 32.69444 -16.77628 175 ft 2 kts 132°
2026-05-04 17:58 32.69454 -16.77643 175 ft 2 kts 112°
2026-05-04 17:58 32.69453 -16.77657 175 ft 0 kts 46°
2026-05-04 17:58 32.69452 -16.77657 175 ft 0 kts 50°
2026-05-04 18:03 32.69454 -16.77656 175 ft 1 kts 47°
2026-05-04 18:03 32.69463 -16.77643 175 ft 3 kts 47°
2026-05-04 18:04 32.69487 -16.77614 175 ft 6 kts 46°
2026-05-04 18:04 32.69523 -16.77569 175 ft 9 kts 46°
2026-05-04 18:04 32.69631 -16.77435 175 ft 13 kts 46°
2026-05-04 18:05 32.69700 -16.77349 175 ft 16 kts 46°
2026-05-04 18:05 32.69791 -16.77236 175 ft 23 kts 46°
2026-05-04 18:05 32.69959 -16.77180 175 ft 30 kts 359°
2026-05-04 18:05 32.70141 -16.77036 175 ft 36 kts 45°
2026-05-04 18:06 32.70434 -16.76692 175 ft 22 kts 46°
2026-05-04 18:06 32.70559 -16.76545 175 ft 29 kts 45°
2026-05-04 18:06 32.70674 -16.76469 175 ft 7 kts 59°
2026-05-04 18:07 32.70633 -16.76462 175 ft 11 kts 221°
2026-05-04 18:07 32.70565 -16.76544 175 ft 18 kts 223°
2026-05-04 18:07 32.70276 -16.76872 175 ft 98 kts 224°
2026-05-04 18:07 32.69605 -16.77633 196 ft 165 kts 224°
2026-05-04 18:08 32.68719 -16.78717 633 ft 200 kts 223°
2026-05-04 18:08 32.67461 -16.79464 1304 ft 213 kts 182°
2026-05-04 18:08 32.66079 -16.79147 2559 ft 195 kts 165°
2026-05-04 18:08 32.64759 -16.78679 3294 ft 206 kts 167°
2026-05-04 18:09 32.61701 -16.77749 3892 ft 241 kts 167°
2026-05-04 18:09 32.58212 -16.76743 4961 ft 266 kts 168°
2026-05-04 18:10 32.56409 -16.76234 5635 ft 268 kts 168°
2026-05-04 18:10 32.54597 -16.75727 5947 ft 266 kts 168°
2026-05-04 18:10 32.52771 -16.75220 5988 ft 272 kts 169°
2026-05-04 18:10 32.50917 -16.74709 6002 ft 275 kts 168°
2026-05-04 18:11 32.49052 -16.74197 5997 ft 273 kts 168°
2026-05-04 18:11 32.47202 -16.73690 5995 ft 271 kts 168°
2026-05-04 18:11 32.45393 -16.73195 6004 ft 270 kts 169°
2026-05-04 18:11 32.43568 -16.72697 6012 ft 269 kts 168°
2026-05-04 18:12 32.41741 -16.72199 6011 ft 270 kts 168°
2026-05-04 18:12 32.39904 -16.71699 6015 ft 271 kts 168°
2026-05-04 18:12 32.38064 -16.71199 6018 ft 272 kts 168°
2026-05-04 18:12 32.36215 -16.70696 6012 ft 273 kts 168°
2026-05-04 18:13 32.34354 -16.70190 6017 ft 274 kts 168°
2026-05-04 18:13 32.32493 -16.69685 6015 ft 275 kts 168°
2026-05-04 18:13 32.28771 -16.68674 6016 ft 274 kts 168°
2026-05-04 18:14 32.26914 -16.68171 6006 ft 273 kts 168°
2026-05-04 18:14 32.25063 -16.67669 6005 ft 273 kts 168°
2026-05-04 18:14 32.23219 -16.67169 6006 ft 272 kts 169°
2026-05-04 18:15 32.19555 -16.66176 6021 ft 272 kts 168°
2026-05-04 18:15 32.15845 -16.65172 6013 ft 274 kts 168°
2026-05-04 18:15 32.13985 -16.64669 6018 ft 274 kts 168°
2026-05-04 18:16 32.12098 -16.64159 6009 ft 274 kts 168°
2026-05-04 18:16 32.10285 -16.63567 5992 ft 275 kts 155°
2026-05-04 18:16 32.08885 -16.62074 6016 ft 276 kts 120°
2026-05-04 18:17 32.08554 -16.57681 6025 ft 278 kts 70°
2026-05-04 18:17 32.09542 -16.55728 6020 ft 279 kts 46°
2026-05-04 18:17 32.12785 -16.53187 6004 ft 282 kts 28°
2026-05-04 18:18 32.14500 -16.52065 6005 ft 282 kts 28°
2026-05-04 18:18 32.16217 -16.50949 6004 ft 282 kts 28°
2026-05-04 18:18 32.17915 -16.49841 6003 ft 282 kts 28°
2026-05-04 18:18 32.19632 -16.48714 6020 ft 281 kts 28°
2026-05-04 18:19 32.23038 -16.46462 6386 ft 283 kts 28°
2026-05-04 18:19 32.24758 -16.45320 6557 ft 284 kts 28°
2026-05-04 18:19 32.26480 -16.44173 6712 ft 284 kts 28°
2026-05-04 18:20 32.28201 -16.43025 6886 ft 284 kts 28°
2026-05-04 18:20 32.29924 -16.41875 7055 ft 284 kts 28°
2026-05-04 18:20 32.31067 -16.41110 7165 ft 285 kts 28°
2026-05-04 18:20 32.32794 -16.39954 7336 ft 285 kts 28°
2026-05-04 18:21 32.35087 -16.38419 7557 ft 286 kts 28°
2026-05-04 18:21 32.36824 -16.37255 7725 ft 287 kts 28°
2026-05-04 18:21 32.38568 -16.36085 7901 ft 288 kts 28°
2026-05-04 18:21 32.40311 -16.34916 8075 ft 289 kts 28°
2026-05-04 18:22 32.41495 -16.34121 8194 ft 290 kts 28°
2026-05-04 18:22 32.43253 -16.32941 8368 ft 291 kts 28°
2026-05-04 18:22 32.44993 -16.31772 8543 ft 291 kts 28°
2026-05-04 18:22 32.46759 -16.30585 8719 ft 292 kts 28°
2026-05-04 18:23 32.48533 -16.29391 8897 ft 293 kts 28°
2026-05-04 18:23 32.50311 -16.28196 9076 ft 295 kts 28°
2026-05-04 18:23 32.52098 -16.26992 9260 ft 296 kts 28°
2026-05-04 18:23 32.53895 -16.25782 9441 ft 297 kts 28°
2026-05-04 18:24 32.55696 -16.24569 9622 ft 298 kts 28°
2026-05-04 18:24 32.57507 -16.23348 9807 ft 299 kts 28°
2026-05-04 18:24 32.59325 -16.22122 9988 ft 300 kts 28°
2026-05-04 18:24 32.61145 -16.20894 10154 ft 301 kts 28°
2026-05-04 18:25 32.62969 -16.19663 10332 ft 302 kts 28°
2026-05-04 18:25 32.64771 -16.18446 10496 ft 302 kts 28°
2026-05-04 18:25 32.66600 -16.17210 10660 ft 302 kts 28°
2026-05-04 18:25 32.68433 -16.15971 10826 ft 302 kts 28°
2026-05-04 18:26 32.70263 -16.14733 11000 ft 303 kts 28°
2026-05-04 18:26 32.72093 -16.13495 11165 ft 303 kts 28°
2026-05-04 18:26 32.73924 -16.12255 11333 ft 303 kts 28°
2026-05-04 18:26 32.75763 -16.11010 11504 ft 303 kts 28°
2026-05-04 18:27 32.77597 -16.09766 11676 ft 304 kts 28°
2026-05-04 18:27 32.79420 -16.08530 11848 ft 305 kts 28°
2026-05-04 18:27 32.81266 -16.07279 12023 ft 306 kts 28°
2026-05-04 18:27 32.83115 -16.06024 12201 ft 307 kts 28°
2026-05-04 18:28 32.84972 -16.04763 12379 ft 308 kts 28°
2026-05-04 18:28 32.86837 -16.03497 12556 ft 309 kts 28°
2026-05-04 18:28 32.88705 -16.02227 12736 ft 310 kts 28°
2026-05-04 18:28 32.90581 -16.00952 12915 ft 311 kts 28°
2026-05-04 18:29 32.92464 -15.99671 13101 ft 312 kts 28°
2026-05-04 18:29 32.94349 -15.98388 13280 ft 313 kts 28°
2026-05-04 18:29 32.96242 -15.97099 13464 ft 314 kts 28°
2026-05-04 18:29 32.98142 -15.95804 13657 ft 315 kts 28°
2026-05-04 18:30 33.01970 -15.93194 14003 ft 318 kts 28°
2026-05-04 18:30 33.03890 -15.91884 14165 ft 318 kts 28°
2026-05-04 18:30 33.05820 -15.90566 14328 ft 319 kts 28°
2026-05-04 18:31 33.07747 -15.89250 14500 ft 320 kts 28°
2026-05-04 18:31 33.09683 -15.87927 14662 ft 321 kts 28°
2026-05-04 18:31 33.11597 -15.86618 14828 ft 321 kts 28°
2026-05-04 18:31 33.13544 -15.85287 14998 ft 322 kts 28°
2026-05-04 18:32 33.15491 -15.83954 15162 ft 323 kts 28°
2026-05-04 18:32 33.17445 -15.82616 15332 ft 324 kts 28°
2026-05-04 18:32 33.19405 -15.81273 15507 ft 325 kts 28°
2026-05-04 18:32 33.21367 -15.79928 15682 ft 325 kts 28°
2026-05-04 18:33 33.23337 -15.78577 15847 ft 326 kts 28°
2026-05-04 18:33 33.25312 -15.77222 16026 ft 327 kts 28°
2026-05-04 18:33 33.27286 -15.75865 16200 ft 328 kts 28°
2026-05-04 18:33 33.29265 -15.74506 16375 ft 329 kts 28°
2026-05-04 18:34 33.31230 -15.73156 16552 ft 330 kts 28°
2026-05-04 18:34 33.33222 -15.71785 16729 ft 331 kts 28°
2026-05-04 18:34 33.35225 -15.70407 16909 ft 332 kts 28°
2026-05-04 18:34 33.37233 -15.69024 17087 ft 333 kts 28°
2026-05-04 18:35 33.39249 -15.67636 17269 ft 335 kts 28°
2026-05-04 18:35 33.41272 -15.66243 17449 ft 336 kts 28°
2026-05-04 18:35 33.43334 -15.64923 17638 ft 336 kts 25°
2026-05-04 18:35 33.45451 -15.63705 17819 ft 338 kts 23°
2026-05-04 18:36 33.47588 -15.62518 18004 ft 339 kts 23°
2026-05-04 18:36 33.49714 -15.61341 18199 ft 340 kts 21°
2026-05-04 18:36 33.51870 -15.60138 18379 ft 342 kts 22°
2026-05-04 18:36 33.54038 -15.58926 18553 ft 343 kts 22°
2026-05-04 18:37 33.56201 -15.57711 18714 ft 344 kts 22°
2026-05-04 18:37 33.58375 -15.56484 18877 ft 345 kts 23°
2026-05-04 18:37 33.60528 -15.55266 19038 ft 346 kts 23°
2026-05-04 18:37 33.62716 -15.54024 19201 ft 347 kts 23°
2026-05-04 18:38 33.64901 -15.52783 19369 ft 348 kts 23°
2026-05-04 18:38 33.67094 -15.51537 19530 ft 348 kts 23°
2026-05-04 18:38 33.69291 -15.50287 19708 ft 349 kts 23°
2026-05-04 18:38 33.71498 -15.49031 19872 ft 351 kts 22°
2026-05-04 18:39 33.73710 -15.47772 20041 ft 352 kts 22°
2026-05-04 18:39 33.75900 -15.46524 20222 ft 353 kts 22°
2026-05-04 18:39 33.78125 -15.45256 20403 ft 354 kts 22°
2026-05-04 18:39 33.80351 -15.43986 20560 ft 354 kts 22°
2026-05-04 18:40 33.82577 -15.42715 20732 ft 354 kts 22°
2026-05-04 18:40 33.84806 -15.41442 20902 ft 354 kts 22°
2026-05-04 18:40 33.87039 -15.40166 21079 ft 354 kts 22°
2026-05-04 18:40 33.89270 -15.38891 21253 ft 355 kts 22°
2026-05-04 18:41 33.91508 -15.37610 21430 ft 356 kts 22°
2026-05-04 18:41 33.93753 -15.36325 21608 ft 358 kts 22°
2026-05-04 18:41 33.96004 -15.35036 21789 ft 359 kts 22°
2026-05-04 18:41 33.98272 -15.33737 21972 ft 361 kts 22°
2026-05-04 18:42 34.00547 -15.32432 22155 ft 363 kts 22°
2026-05-04 18:42 34.02838 -15.31118 22348 ft 365 kts 21°
2026-05-04 18:42 34.05137 -15.29798 22530 ft 367 kts 21°
2026-05-04 18:42 34.07452 -15.28468 22717 ft 369 kts 21°
2026-05-04 18:43 34.09778 -15.27130 22909 ft 371 kts 21°
2026-05-04 18:43 34.12113 -15.25786 23088 ft 372 kts 21°
2026-05-04 18:43 34.14458 -15.24436 23283 ft 374 kts 21°
2026-05-04 18:43 34.16809 -15.23082 23465 ft 375 kts 21°
2026-05-04 18:44 34.19138 -15.21740 23662 ft 377 kts 21°
2026-05-04 18:44 34.20739 -15.20818 23790 ft 378 kts 21°
2026-05-04 18:44 34.23886 -15.19002 23990 ft 380 kts 21°
2026-05-04 18:44 34.26270 -15.17627 24146 ft 380 kts 21°
2026-05-04 18:45 34.28663 -15.16245 24307 ft 381 kts 21°
2026-05-04 18:45 34.31061 -15.14858 24484 ft 382 kts 21°
2026-05-04 18:45 34.33460 -15.13470 24645 ft 382 kts 21°
2026-05-04 18:45 34.35868 -15.12076 24809 ft 383 kts 21°
2026-05-04 18:46 34.38278 -15.10680 24969 ft 384 kts 21°
2026-05-04 18:46 34.40659 -15.09300 25127 ft 384 kts 21°
2026-05-04 18:46 34.43077 -15.07897 25296 ft 385 kts 21°
2026-05-04 18:46 34.45492 -15.06495 25460 ft 385 kts 21°
2026-05-04 18:47 34.47919 -15.05085 25630 ft 386 kts 21°
2026-05-04 18:47 34.50341 -15.03677 25797 ft 386 kts 21°
2026-05-04 18:47 34.52770 -15.02265 25969 ft 387 kts 21°
2026-05-04 18:47 34.55204 -15.00848 26137 ft 388 kts 21°
2026-05-04 18:48 34.57643 -14.99428 26318 ft 389 kts 21°
2026-05-04 18:48 34.60087 -14.98004 26486 ft 389 kts 21°
2026-05-04 18:48 34.62497 -14.96598 26664 ft 390 kts 21°
2026-05-04 18:48 34.64944 -14.95171 26833 ft 390 kts 21°
2026-05-04 18:49 34.67388 -14.93743 27015 ft 390 kts 20°
2026-05-04 18:49 34.69833 -14.92315 27188 ft 390 kts 20°
2026-05-04 18:49 34.72278 -14.90885 27360 ft 389 kts 20°
2026-05-04 18:49 34.74722 -14.89455 27538 ft 389 kts 20°
2026-05-04 18:50 34.77160 -14.88027 27711 ft 388 kts 20°
2026-05-04 18:50 34.79591 -14.86602 27887 ft 388 kts 20°
2026-05-04 18:50 34.82021 -14.85178 28064 ft 387 kts 20°
2026-05-04 18:50 34.84440 -14.83759 28265 ft 386 kts 20°
2026-05-04 18:51 34.86857 -14.82340 28446 ft 384 kts 20°
2026-05-04 18:51 34.89266 -14.80924 28625 ft 383 kts 20°
2026-05-04 18:51 34.91668 -14.79512 28805 ft 382 kts 20°
2026-05-04 18:51 34.94060 -14.78106 28984 ft 381 kts 20°
2026-05-04 18:52 34.96443 -14.76703 29170 ft 380 kts 20°
2026-05-04 18:52 34.98824 -14.75301 29354 ft 379 kts 20°
2026-05-04 18:52 35.01195 -14.73904 29527 ft 378 kts 20°
2026-05-04 18:52 35.03568 -14.72505 29727 ft 378 kts 20°
2026-05-04 18:53 35.05902 -14.71128 29916 ft 377 kts 20°
2026-05-04 18:53 35.08270 -14.69731 30110 ft 377 kts 20°
2026-05-04 18:53 35.10639 -14.68332 30292 ft 380 kts 20°
2026-05-04 18:53 35.13036 -14.66917 30481 ft 384 kts 20°
2026-05-04 18:54 35.15457 -14.65488 30656 ft 389 kts 20°
2026-05-04 18:54 35.17910 -14.64038 30846 ft 393 kts 20°
2026-05-04 18:54 35.20384 -14.62573 31019 ft 396 kts 20°
2026-05-04 18:54 35.22868 -14.61101 31195 ft 399 kts 20°
2026-05-04 18:55 35.25373 -14.59614 31371 ft 401 kts 20°
2026-05-04 18:55 35.30426 -14.56612 31727 ft 405 kts 20°
2026-05-04 18:55 35.32970 -14.55099 31904 ft 406 kts 20°
2026-05-04 18:56 35.35486 -14.53602 32075 ft 407 kts 20°
2026-05-04 18:56 35.38038 -14.52082 32276 ft 408 kts 20°
2026-05-04 18:56 35.40599 -14.50555 32449 ft 408 kts 20°
2026-05-04 18:56 35.43149 -14.49034 32626 ft 409 kts 20°
2026-05-04 18:57 35.45710 -14.47506 32801 ft 409 kts 20°
2026-05-04 18:57 35.48264 -14.45981 32980 ft 409 kts 20°
2026-05-04 18:57 35.50823 -14.44453 33157 ft 409 kts 20°
2026-05-04 18:57 35.53383 -14.42922 33338 ft 409 kts 20°
2026-05-04 18:58 35.55949 -14.41388 33528 ft 411 kts 20°
2026-05-04 18:58 35.58532 -14.39842 33721 ft 414 kts 20°
2026-05-04 18:58 35.61131 -14.38287 33911 ft 416 kts 20°
2026-05-04 18:58 35.63735 -14.36726 34129 ft 418 kts 19°
2026-05-04 18:59 35.69021 -14.33558 34183 ft 427 kts 20°
2026-05-04 18:59 35.74395 -14.30330 34192 ft 435 kts 20°
2026-05-04 19:00 35.79855 -14.27038 34177 ft 434 kts 20°
2026-05-04 19:00 35.85228 -14.23789 34172 ft 427 kts 20°
2026-05-04 19:01 35.90541 -14.20581 34212 ft 427 kts 19°
2026-05-04 19:01 35.95899 -14.17344 34191 ft 429 kts 19°
2026-05-04 19:02 36.01262 -14.14097 34182 ft 430 kts 19°
2026-05-04 19:02 36.06633 -14.10839 34181 ft 430 kts 19°
2026-05-04 19:03 36.12009 -14.07573 34181 ft 430 kts 19°
2026-05-04 19:03 36.17382 -14.04303 34200 ft 430 kts 19°
2026-05-04 19:04 36.22711 -14.01056 34184 ft 430 kts 19°
2026-05-04 19:04 36.28071 -13.97784 34179 ft 429 kts 19°
2026-05-04 19:05 36.32525 -13.95061 34181 ft 428 kts 19°
2026-05-04 19:05 36.37867 -13.91792 34178 ft 428 kts 19°
2026-05-04 19:06 36.43203 -13.88520 34218 ft 427 kts 19°
2026-05-04 19:06 36.48529 -13.85251 34192 ft 426 kts 19°
2026-05-04 19:07 36.53793 -13.82013 34172 ft 424 kts 19°
2026-05-04 19:07 36.59138 -13.78727 34196 ft 433 kts 19°
2026-05-04 19:08 36.64611 -13.75356 34199 ft 444 kts 19°
2026-05-04 19:08 36.70222 -13.71886 34194 ft 455 kts 19°
2026-05-04 19:09 36.75963 -13.68332 34194 ft 465 kts 19°
2026-05-04 19:09 36.81715 -13.64367 34194 ft 479 kts 25°
2026-05-04 19:10 36.86463 -13.60656 34191 ft 486 kts 26°
2026-05-04 19:10 36.93162 -13.55351 34194 ft 494 kts 26°
2026-05-04 19:11 36.99009 -13.50789 34190 ft 495 kts 25°
2026-05-04 19:11 37.04867 -13.46254 34180 ft 495 kts 25°
2026-05-04 19:12 37.13640 -13.39464 34176 ft 493 kts 25°
2026-05-04 19:13 37.19422 -13.34977 34179 ft 491 kts 25°
2026-05-04 19:13 37.25233 -13.30458 34186 ft 490 kts 25°
2026-05-04 19:14 37.31031 -13.25940 34179 ft 489 kts 25°
2026-05-04 19:14 37.36811 -13.21427 34185 ft 488 kts 25°
2026-05-04 19:15 37.42588 -13.16909 34181 ft 487 kts 25°
2026-05-04 19:15 37.48309 -13.12427 34211 ft 487 kts 25°
2026-05-04 19:16 37.54063 -13.07911 34188 ft 487 kts 25°
2026-05-04 19:16 37.59813 -13.03390 34177 ft 486 kts 25°
2026-05-04 19:17 37.65559 -12.98863 34181 ft 486 kts 25°
2026-05-04 19:17 37.71297 -12.94334 34179 ft 486 kts 25°
2026-05-04 19:18 37.76993 -12.89830 34175 ft 486 kts 25°
2026-05-04 19:18 37.82737 -12.85280 34178 ft 487 kts 25°
2026-05-04 19:19 37.88478 -12.80723 34181 ft 487 kts 25°
2026-05-04 19:19 37.94230 -12.76149 34186 ft 488 kts 25°
2026-05-04 19:20 37.99987 -12.71563 34170 ft 489 kts 26°
2026-05-04 19:20 38.05748 -12.66964 34172 ft 489 kts 26°
2026-05-04 19:21 38.11497 -12.62365 34177 ft 488 kts 26°
2026-05-04 19:21 38.17243 -12.57761 34176 ft 487 kts 26°
2026-05-04 19:22 38.22940 -12.53188 34201 ft 487 kts 27°
2026-05-04 19:22 38.28670 -12.48579 34178 ft 486 kts 27°
2026-05-04 19:23 38.34385 -12.43974 34172 ft 485 kts 27°
2026-05-04 19:23 38.40088 -12.39370 34184 ft 484 kts 27°
2026-05-04 19:24 38.45783 -12.34764 34176 ft 484 kts 27°
2026-05-04 19:24 38.51436 -12.30184 34173 ft 484 kts 26°
2026-05-04 19:25 38.57128 -12.25562 34174 ft 484 kts 26°
2026-05-04 19:25 38.62813 -12.20938 34171 ft 483 kts 26°
2026-05-04 19:26 38.68492 -12.16310 34172 ft 483 kts 26°
2026-05-04 19:26 38.74166 -12.11677 34185 ft 484 kts 26°
2026-05-04 19:27 38.79818 -12.07054 34175 ft 484 kts 26°
2026-05-04 19:27 38.85503 -12.02394 34178 ft 485 kts 26°
2026-05-04 19:28 38.91197 -11.97718 34167 ft 485 kts 26°
2026-05-04 19:28 38.96891 -11.93032 34191 ft 486 kts 25°
2026-05-04 19:29 39.02545 -11.88371 34173 ft 486 kts 25°
2026-05-04 19:29 39.08248 -11.83659 34166 ft 487 kts 25°
2026-05-04 19:30 39.13494 -11.79317 34163 ft 487 kts 25°
2026-05-04 19:30 39.19193 -11.74592 34161 ft 486 kts 25°
2026-05-04 19:31 39.24851 -11.69892 34161 ft 487 kts 25°
2026-05-04 19:31 39.30549 -11.65147 34162 ft 486 kts 25°
2026-05-04 19:32 39.36238 -11.60403 34155 ft 486 kts 25°
2026-05-04 19:32 39.41886 -11.55684 34158 ft 485 kts 25°
2026-05-04 19:33 39.47553 -11.50938 34177 ft 484 kts 24°
2026-05-04 19:33 39.53212 -11.46190 34162 ft 484 kts 24°
2026-05-04 19:34 39.58862 -11.41439 34156 ft 483 kts 24°
2026-05-04 19:34 39.64463 -11.36721 34155 ft 483 kts 24°
2026-05-04 19:35 39.70093 -11.31968 34202 ft 482 kts 24°
2026-05-04 19:35 39.75732 -11.27200 34151 ft 484 kts 24°
2026-05-04 19:36 39.81376 -11.22417 34154 ft 483 kts 24°
2026-05-04 19:36 39.87005 -11.17637 34152 ft 483 kts 24°
2026-05-04 19:37 39.92590 -11.12885 34146 ft 482 kts 24°
2026-05-04 19:37 39.98213 -11.08092 34155 ft 483 kts 24°
2026-05-04 19:38 40.03847 -11.03279 34153 ft 483 kts 24°
2026-05-04 19:38 40.09467 -10.98470 34146 ft 483 kts 24°
2026-05-04 19:39 40.15081 -10.93654 34177 ft 483 kts 24°
2026-05-04 19:39 40.20703 -10.88824 34155 ft 483 kts 24°
2026-05-04 19:40 40.26320 -10.83987 34142 ft 484 kts 24°
2026-05-04 19:40 40.31915 -10.79159 34142 ft 484 kts 24°
2026-05-04 19:41 40.37539 -10.74297 34141 ft 484 kts 24°
2026-05-04 19:41 40.43164 -10.69424 34182 ft 485 kts 25°
2026-05-04 19:42 40.48800 -10.64531 34148 ft 485 kts 25°
2026-05-04 19:42 40.54432 -10.59631 34136 ft 485 kts 25°
2026-05-04 19:43 40.60058 -10.54726 34131 ft 485 kts 25°
2026-05-04 19:43 40.65688 -10.49809 34186 ft 485 kts 25°